<?xml version="1.0" encoding="UTF-8" standalone="no" ?>
<gpx xmlns="http://www.topografix.com/GPX/1/1" xmlns:xsi="http://www.w3.org/2001/XMLSchema-instance" xsi:schemaLocation="http://www.topografix.com/GPX/1/1 http://www.topografix.com/GPX/1/1/gpx.xsd" version="1.1" creator="VisuGPX - https://www.visugpx.com">
  <metadata>
    <name>Trail des reculees 2022  La Diane sur TraceDeTrail.fr</name>
  </metadata>
  <trk>
    <name><![CDATA[Trail des reculees 2022  La Diane sur TraceDeTrail.fr]]></name>
    <extensions>
      <line xmlns="http://www.topografix.com/GPX/gpx_style/0/2">
        <color>0000FF</color>
        <width>4</width>
      </line>
    </extensions>
    <trkseg>
      <trkpt lat="46.67441" lon="5.55327">
        <ele>254</ele>
        <time>2000-01-01T01:39:06.000Z</time>
        <extensions>
          <visugpx:TrkExtension xmlns:visugpx="https://www.visugpx.com/editgpx/">
            <visugpx:node>4</visugpx:node>
            </visugpx:TrkExtension>
        </extensions>
      </trkpt>
      <trkpt lat="46.67457" lon="5.55347">
        <ele>254</ele>
        <time>2000-01-01T01:39:16.000Z</time>
      </trkpt>
      <trkpt lat="46.67471" lon="5.55357">
        <ele>255</ele>
        <time>2000-01-01T01:39:26.000Z</time>
      </trkpt>
      <trkpt lat="46.6749" lon="5.55366">
        <ele>254</ele>
        <time>2000-01-01T01:39:36.000Z</time>
      </trkpt>
      <trkpt lat="46.6751" lon="5.5538">
        <ele>254</ele>
        <time>2000-01-01T01:39:46.000Z</time>
      </trkpt>
      <trkpt lat="46.67532" lon="5.55393">
        <ele>255</ele>
        <time>2000-01-01T01:39:56.000Z</time>
      </trkpt>
      <trkpt lat="46.67526" lon="5.55422">
        <ele>255</ele>
        <time>2000-01-01T01:40:06.000Z</time>
      </trkpt>
      <trkpt lat="46.67517" lon="5.55455">
        <ele>256</ele>
        <time>2000-01-01T01:40:16.000Z</time>
      </trkpt>
      <trkpt lat="46.67509" lon="5.55479">
        <ele>256</ele>
        <time>2000-01-01T01:40:26.000Z</time>
      </trkpt>
      <trkpt lat="46.67506" lon="5.55492">
        <ele>256</ele>
        <time>2000-01-01T01:40:36.000Z</time>
      </trkpt>
      <trkpt lat="46.67502" lon="5.55523">
        <ele>256</ele>
        <time>2018-07-17T05:26:10.000Z</time>
      </trkpt>
      <trkpt lat="46.67492" lon="5.55545">
        <ele>257</ele>
        <time>2018-07-17T05:26:20.000Z</time>
      </trkpt>
      <trkpt lat="46.67465" lon="5.55532">
        <ele>256</ele>
        <time>2018-07-17T05:26:30.000Z</time>
      </trkpt>
      <trkpt lat="46.67451" lon="5.55521">
        <ele>256.8</ele>
        <time>2018-07-17T05:26:40.000Z</time>
      </trkpt>
      <trkpt lat="46.67436" lon="5.55514">
        <ele>256</ele>
        <time>2018-07-17T05:27:00.000Z</time>
      </trkpt>
      <trkpt lat="46.6743" lon="5.55513">
        <ele>256.7</ele>
        <time>2018-07-17T05:27:10.000Z</time>
      </trkpt>
      <trkpt lat="46.6741" lon="5.55499">
        <ele>256</ele>
        <time>2018-07-17T05:27:20.000Z</time>
      </trkpt>
      <trkpt lat="46.67386" lon="5.55492">
        <ele>256</ele>
        <time>2018-07-17T05:27:30.000Z</time>
      </trkpt>
      <trkpt lat="46.6736" lon="5.55485">
        <ele>256</ele>
        <time>2018-07-17T05:27:40.000Z</time>
      </trkpt>
      <trkpt lat="46.67349" lon="5.55489">
        <ele>256.3</ele>
        <time>2018-07-17T05:27:50.000Z</time>
      </trkpt>
      <trkpt lat="46.67314" lon="5.55474">
        <ele>256</ele>
        <time>2018-07-17T05:28:20.000Z</time>
      </trkpt>
      <trkpt lat="46.67302" lon="5.55474">
        <ele>256</ele>
        <time>2018-07-17T05:28:30.000Z</time>
      </trkpt>
      <trkpt lat="46.6726" lon="5.55465">
        <ele>256</ele>
        <time>2018-07-17T05:28:40.000Z</time>
      </trkpt>
      <trkpt lat="46.67257" lon="5.55486">
        <ele>256.5</ele>
        <time>2018-07-17T05:28:50.000Z</time>
      </trkpt>
      <trkpt lat="46.67255" lon="5.55515">
        <ele>256</ele>
        <time>2018-07-17T05:29:10.000Z</time>
      </trkpt>
      <trkpt lat="46.67252" lon="5.5553">
        <ele>256.1</ele>
        <time>2018-07-17T05:29:20.000Z</time>
      </trkpt>
      <trkpt lat="46.67251" lon="5.55547">
        <ele>255</ele>
        <time>2018-07-17T05:28:30.000Z</time>
      </trkpt>
      <trkpt lat="46.67255" lon="5.55577">
        <ele>255</ele>
        <time>2018-07-17T05:28:33.000Z</time>
      </trkpt>
      <trkpt lat="46.67259" lon="5.55593">
        <ele>256</ele>
        <time>2018-07-17T05:28:43.000Z</time>
      </trkpt>
      <trkpt lat="46.67261" lon="5.55606">
        <ele>256</ele>
        <time>2018-07-17T05:28:42.000Z</time>
      </trkpt>
      <trkpt lat="46.67268" lon="5.55634">
        <ele>256</ele>
        <time>2018-07-17T05:28:51.000Z</time>
      </trkpt>
      <trkpt lat="46.67271" lon="5.5565">
        <ele>256.4</ele>
        <time>2018-07-17T05:29:01.000Z</time>
      </trkpt>
      <trkpt lat="46.67281" lon="5.55696">
        <ele>256</ele>
        <time>2018-07-17T05:29:11.000Z</time>
      </trkpt>
      <trkpt lat="46.6728" lon="5.55713">
        <ele>257.1</ele>
        <time>2018-07-17T05:29:21.000Z</time>
      </trkpt>
      <trkpt lat="46.67283" lon="5.55757">
        <ele>257</ele>
        <time>2018-07-17T05:29:29.000Z</time>
      </trkpt>
      <trkpt lat="46.67283" lon="5.5577">
        <ele>257.8</ele>
        <time>2018-07-17T05:29:39.000Z</time>
      </trkpt>
      <trkpt lat="46.67284" lon="5.55785">
        <ele>257</ele>
        <time>2018-07-17T05:29:38.000Z</time>
      </trkpt>
      <trkpt lat="46.67283" lon="5.55803">
        <ele>258</ele>
        <time>2018-07-17T05:29:48.000Z</time>
      </trkpt>
      <trkpt lat="46.67284" lon="5.55816">
        <ele>257</ele>
        <time>2018-07-17T05:29:47.000Z</time>
      </trkpt>
      <trkpt lat="46.67284" lon="5.55842">
        <ele>258.5</ele>
        <time>2018-07-17T05:29:57.000Z</time>
      </trkpt>
      <trkpt lat="46.67285" lon="5.55855">
        <ele>258</ele>
        <time>2018-07-17T05:29:59.000Z</time>
      </trkpt>
      <trkpt lat="46.67281" lon="5.55871">
        <ele>259.3</ele>
        <time>2018-07-17T05:30:09.000Z</time>
      </trkpt>
      <trkpt lat="46.67275" lon="5.55883">
        <ele>259</ele>
        <time>2018-07-17T05:30:08.000Z</time>
      </trkpt>
      <trkpt lat="46.67266" lon="5.55905">
        <ele>260</ele>
        <time>2018-07-17T05:30:18.000Z</time>
      </trkpt>
      <trkpt lat="46.67259" lon="5.55917">
        <ele>259</ele>
        <time>2018-07-17T05:30:19.000Z</time>
        <extensions>
          <visugpx:TrkExtension xmlns:visugpx="https://www.visugpx.com/editgpx/">
            <visugpx:node>5</visugpx:node>
            </visugpx:TrkExtension>
        </extensions>
      </trkpt>
    </trkseg>
  </trk>
</gpx>